Time,TemperatureF,DewpointF,PressureIn,WindDirection,WindDirectionDegrees,WindSpeedMPH,WindSpeedGustMPH,Humidity,HourlyPrecipIn,Conditions,Clouds,dailyrainin,SoftwareType,DateUTC
2013-01-06 14:12:00,23.0,16.0,-100.00,SE,138,4.0,4.0,72,0.00,,,-99.99,,2013-01-06 21:12:00,
2013-01-06 14:22:00,23.0,16.0,-100.00,SE,138,4.0,4.0,72,0.00,,,-99.99,,2013-01-06 21:22:00,
2013-01-06 14:32:00,23.0,16.0,-100.00,SE,138,4.0,4.0,72,0.00,,,-99.99,,2013-01-06 21:32:00,
2013-01-06 14:42:00,24.0,16.0,-100.00,SE,144,3.0,4.0,70,0.00,,,-99.99,,2013-01-06 21:42:00,
2013-01-06 14:53:00,22.0,14.0,-100.00,SSE,147,4.0,5.0,72,0.00,,,-99.99,,2013-01-06 21:53:00,
2013-01-06 15:02:00,22.0,14.0,-100.00,SSE,147,4.0,5.0,72,0.00,,,-99.99,,2013-01-06 22:02:00,
2013-01-06 15:12:00,22.0,14.0,-100.00,SE,138,5.0,6.0,73,0.00,,,-99.99,,2013-01-06 22:12:00,
2013-01-06 15:22:00,22.0,14.0,-100.00,SE,138,5.0,6.0,73,0.00,,,-99.99,,2013-01-06 22:22:00,
2013-01-06 15:32:00,22.0,14.0,-100.00,SE,138,5.0,6.0,73,0.00,,,-99.99,,2013-01-06 22:32:00,
2013-01-06 15:42:00,21.0,14.0,-100.00,South,176,3.0,4.0,74,0.00,,,-99.99,,2013-01-06 22:42:00,
2013-01-06 15:52:00,22.0,15.0,-100.00,South,191,2.0,3.0,74,0.00,,,-99.99,,2013-01-06 22:52:00,
2013-01-06 16:02:00,22.0,15.0,-100.00,South,191,2.0,3.0,74,0.00,,,-99.99,,2013-01-06 23:02:00,
2013-01-06 16:12:00,19.0,13.0,-100.00,SW,224,7.0,8.0,78,0.00,,,-99.99,,2013-01-06 23:12:00,
2013-01-06 16:22:00,18.0,12.0,-100.00,WSW,239,8.0,9.0,78,0.00,,,-99.99,,2013-01-06 23:22:00,
2013-01-06 16:32:00,18.0,12.0,-100.00,WSW,239,8.0,9.0,78,0.00,,,-99.99,,2013-01-06 23:32:00,
2013-01-06 16:42:00,19.0,13.0,-100.00,SW,234,6.0,7.0,75,0.00,,,-99.99,,2013-01-06 23:42:00,
2013-01-06 16:53:00,19.0,13.0,-100.00,SW,234,6.0,7.0,75,0.00,,,-99.99,,2013-01-06 23:53:00,
2013-01-06 17:02:00,19.0,13.0,-100.00,SW,234,6.0,7.0,75,0.00,,,-99.99,,2013-01-07 00:02:00,
2013-01-06 17:12:00,17.0,12.0,-100.00,WSW,239,6.0,6.0,81,0.00,,,-99.99,,2013-01-07 00:12:00,
2013-01-06 17:22:00,16.0,11.0,-100.00,SW,230,5.0,6.0,80,0.00,,,-99.99,,2013-01-07 00:22:00,
2013-01-06 17:32:00,16.0,11.0,-100.00,SW,230,5.0,6.0,80,0.00,,,-99.99,,2013-01-07 00:32:00,
2013-01-06 17:42:00,17.0,12.0,-100.00,WSW,257,4.0,6.0,80,0.00,,,-99.99,,2013-01-07 00:42:00,
2013-01-06 17:53:00,13.0,7.0,-100.00,WNW,298,6.0,8.0,75,0.00,,,-99.99,,2013-01-07 00:53:00,
2013-01-06 18:02:00,13.0,7.0,-100.00,WNW,298,6.0,8.0,75,0.00,,,-99.99,,2013-01-07 01:02:00,
2013-01-06 18:12:00,13.0,7.0,-100.00,WNW,298,6.0,8.0,75,0.00,,,-99.99,,2013-01-07 01:12:00,
2013-01-06 18:22:00,11.0,8.0,-100.00,WNW,296,2.0,3.0,87,0.00,,,-99.99,,2013-01-07 01:22:00,
2013-01-06 18:32:00,11.0,9.0,-100.00,WNW,295,5.0,5.0,88,0.00,,,-99.99,,2013-01-07 01:32:00,
2013-01-06 18:43:00,11.0,9.0,-100.00,WNW,295,5.0,5.0,88,0.00,,,-99.99,,2013-01-07 01:43:00,
2013-01-06 18:53:00,11.0,9.0,-100.00,WNW,295,5.0,5.0,88,0.00,,,-99.99,,2013-01-07 01:53:00,
2013-01-06 19:01:00,11.0,9.0,-100.00,WNW,295,5.0,5.0,88,0.00,,,-99.99,,2013-01-07 02:01:00,
2013-01-06 19:12:00,10.0,7.0,-100.00,WNW,298,5.0,6.0,87,0.00,,,-99.99,,2013-01-07 02:12:00,
2013-01-06 19:22:00,9.0,6.0,-100.00,WNW,301,5.0,6.0,88,0.00,,,-99.99,,2013-01-07 02:22:00,
2013-01-06 19:32:00,9.0,6.0,-100.00,WNW,301,5.0,6.0,88,0.00,,,-99.99,,2013-01-07 02:32:00,
2013-01-06 19:42:00,7.0,5.0,-100.00,SSE,161,7.0,8.0,89,0.00,,,-99.99,,2013-01-07 02:42:00,
2013-01-06 19:53:00,5.0,2.0,-100.00,SSE,164,5.0,6.0,89,0.00,,,-99.99,,2013-01-07 02:53:00,
2013-01-06 20:02:00,5.0,2.0,-100.00,SSE,164,5.0,6.0,89,0.00,,,-99.99,,2013-01-07 03:02:00,
2013-01-06 20:12:00,5.0,2.0,-100.00,SSE,164,5.0,6.0,89,0.00,,,-99.99,,2013-01-07 03:12:00,
2013-01-06 20:22:00,7.0,4.0,-100.00,SSE,151,4.0,6.0,89,0.00,,,-99.99,,2013-01-07 03:22:00,
2013-01-06 20:32:00,7.0,4.0,-100.00,SSE,151,4.0,6.0,89,0.00,,,-99.99,,2013-01-07 03:32:00,
2013-01-06 20:42:00,4.0,2.0,-100.00,SSW,202,1.0,2.0,91,0.00,,,-99.99,,2013-01-07 03:42:00,
2013-01-06 20:53:00,4.0,2.0,-100.00,SE,143,3.0,4.0,92,0.00,,,-99.99,,2013-01-07 03:53:00,
2013-01-06 21:02:00,4.0,2.0,-100.00,SE,143,3.0,4.0,92,0.00,,,-99.99,,2013-01-07 04:02:00,
2013-01-06 21:12:00,4.0,2.0,-100.00,SE,143,3.0,4.0,92,0.00,,,-99.99,,2013-01-07 04:12:00,
2013-01-06 21:22:00,2.0,0.0,-100.00,West,275,1.0,2.0,92,0.00,,,-99.99,,2013-01-07 04:22:00,
2013-01-06 21:32:00,2.0,0.0,-100.00,West,275,1.0,2.0,92,0.00,,,-99.99,,2013-01-07 04:32:00,
2013-01-06 21:42:00,4.0,3.0,-100.00,SE,145,3.0,5.0,94,0.00,,,-99.99,,2013-01-07 04:42:00,
2013-01-06 21:52:00,3.0,1.0,-100.00,SW,222,4.0,4.0,93,0.00,,,-99.99,,2013-01-07 04:52:00,
2013-01-06 22:02:00,3.0,1.0,-100.00,SW,222,4.0,4.0,93,0.00,,,-99.99,,2013-01-07 05:02:00,
2013-01-06 22:12:00,3.0,1.0,-100.00,SW,236,6.0,6.0,92,0.00,,,-99.99,,2013-01-07 05:12:00,
2013-01-06 22:22:00,3.0,1.0,-100.00,SW,236,6.0,6.0,92,0.00,,,-99.99,,2013-01-07 05:22:00,
2013-01-06 22:32:00,3.0,1.0,-100.00,SW,236,6.0,6.0,92,0.00,,,-99.99,,2013-01-07 05:32:00,
2013-01-06 22:42:00,0.0,-3.0,-100.00,SW,220,3.0,4.0,87,0.00,,,-99.99,,2013-01-07 05:42:00,
2013-01-06 22:53:00,-2.0,-5.0,-100.00,West,272,4.0,5.0,87,0.00,,,-99.99,,2013-01-07 05:53:00,
2013-01-06 23:02:00,-2.0,-5.0,-100.00,West,272,4.0,5.0,87,0.00,,,-99.99,,2013-01-07 06:02:00,
2013-01-06 23:12:00,0.0,-3.0,-100.00,WNW,291,3.0,4.0,90,0.00,,,-99.99,,2013-01-07 06:12:00,
2013-01-06 23:22:00,0.0,-3.0,-100.00,WNW,291,3.0,4.0,90,0.00,,,-99.99,,2013-01-07 06:22:00,
2013-01-06 23:32:00,0.0,-3.0,-100.00,WNW,291,3.0,4.0,90,0.00,,,-99.99,,2013-01-07 06:32:00,
2013-01-06 23:42:00,-2.0,-5.0,-100.00,West,268,2.0,2.0,87,0.00,,,-99.99,,2013-01-07 06:42:00,
2013-01-06 23:52:00,-3.0,-6.0,-100.00,NE,37,1.0,2.0,86,0.00,,,-99.99,,2013-01-07 06:52:00,